Location: Seasalter
(51.3333°N, 1.0167°E)
Time: 12:12:03
(UTC+00:00)

CZ-2C R/B - Pass Details

Date: 26 September 2023
Orbit: 667 x 780 km, 98.3° (Epoch: 10 December)

Event Time Altitude Azimuth Distance (km) Brightness Sun altitude
Rises 04:26:36 0° 9° (N) 3,192 6.1 -13.4°
Reaches altitude 10° 04:29:02 10° 2° (N) 2,246 5.1 -13.0°
Maximum altitude 04:33:35 39° 295° (WNW) 1,076 2.9 -12.3°
Enters shadow 04:37:26 13° 230° (SW) 1,964 4.1 -11.7°
